Change the Weather History Date:

Thursday, November 29, 2012

  Actual Average Record
Temperature  
Mean Temperature 12 °F -  
Max Temperature 17 °F 28 °F 48 °F (1997)
Min Temperature 8 °F 13 °F -8 °F (2014)
Degree Days  
Heating Degree Days 52    
Moisture  
Dew Point 7 °F    
Average Humidity 80    
Maximum Humidity 86    
Minimum Humidity 67    
Precipitation  
Precipitation 0.00 in - - ()
Sea Level Pressure  
Sea Level Pressure 30.20 in    
Wind  
Wind Speed 14 mph (East)    
Max Wind Speed 18 mph    
Max Gust Speed -    
Visibility 10 miles    
Events      
Averages and records for this station are not official NWS values.
T = Trace of Precipitation, MM = Missing Value Source: NWS Daily Summary

Daily Weather History Graph

Daily Weather History Graph

Search for Another Location

Airport or City:

Trip Planner

Search our weather history database for the weather conditions in past years. The results will help you decide how hot, cold, wet, or windy it might be!

Date:

Astronomy

Nov. 29, 2012 Rise Set
Actual Time 8:13 AM CST 4:53 PM CST
Civil Twilight 7:38 AM CST 5:29 PM CST
Nautical Twilight 6:58 AM CST 6:08 PM CST
Astronomical Twilight 6:21 AM CST 6:46 PM CST
Moon 5:57 PM CST (11/29) 9:02 AM CST (11/29)
Length of Visible Light 9h 51m
Length of Day
8h 39m
Full, 99% of the Moon is Illuminated
Nov 29
Full
Dec 6
Last Quarter
Dec 13
New
Dec 19
First Quarter
Dec 28
Full

Hourly Weather History & Observations

Time (CST) Temp. Windchill Dew Point Humidity Pressure Visibility Wind Dir Wind Speed Gust Speed Precip Events Conditions
12:14 AM 17.6 °F 2.7 °F 12.2 °F 79% 30.20 in 10.0 mi ENE 16.1 mph - N/A   Overcast
12:55 AM 16.9 °F 1.2 °F 13.3 °F 86% 30.20 in 10.0 mi East 17.3 mph - N/A   Overcast
1:37 AM 15.8 °F 2.1 °F 10.4 °F 79% 30.21 in 10.0 mi East 12.7 mph - N/A   Mostly Cloudy
1:42 AM 14.0 °F 1.2 °F 10.4 °F 86% 30.21 in 10.0 mi East 10.4 mph - N/A   Scattered Clouds
1:55 AM 14.4 °F 0.2 °F 10.6 °F 85% 30.20 in 10.0 mi East 12.7 mph - N/A   Partly Cloudy
2:09 AM 14.0 °F -0.2 °F 10.4 °F 86% 30.20 in 10.0 mi East 12.7 mph - N/A   Mostly Cloudy
2:20 AM 14.0 °F 1.2 °F 10.4 °F 86% 30.21 in 10.0 mi East 10.4 mph - N/A   Scattered Clouds
2:55 AM 12.7 °F 1.4 °F 8.8 °F 84% 30.22 in 10.0 mi East 8.1 mph - N/A   Scattered Clouds
2:59 AM 12.2 °F -0.2 °F 8.6 °F 85% 30.22 in 10.0 mi East 9.2 mph - N/A   Mostly Cloudy
3:03 AM 12.2 °F -2.5 °F 8.6 °F 85% 30.21 in 10.0 mi East 12.7 mph - N/A   Scattered Clouds
3:13 AM 12.2 °F -1.8 °F 8.6 °F 85% 30.22 in 10.0 mi East 11.5 mph - N/A   Mostly Cloudy
3:48 AM 12.2 °F -2.5 °F 6.8 °F 79% 30.21 in 10.0 mi East 12.7 mph - N/A   Scattered Clouds
3:55 AM 11.1 °F -3.9 °F 6.1 °F 80% 30.21 in 10.0 mi East 12.7 mph - N/A   Scattered Clouds
4:55 AM 9.9 °F -5.5 °F 5.2 °F 81% 30.19 in 10.0 mi East 12.7 mph - N/A   Clear
5:55 AM 9.5 °F -2.6 °F 5.4 °F 83% 30.23 in 10.0 mi ENE 8.1 mph - N/A   Clear
6:55 AM 8.8 °F -5.3 °F 5.2 °F 85% 30.24 in 10.0 mi ENE 10.4 mph - N/A   Clear
7:55 AM 9.5 °F -8.8 °F 4.6 °F 81% 30.22 in 10.0 mi East 18.4 mph - N/A   Clear
8:25 AM 8.6 °F -8.3 °F 5.0 °F 85% 30.23 in 10.0 mi East 15.0 mph - N/A   Mostly Cloudy
8:36 AM 8.6 °F -8.9 °F 5.0 °F 85% 30.24 in 10.0 mi East 16.1 mph - N/A   Scattered Clouds
8:55 AM 9.1 °F -8.8 °F 3.6 °F 78% 30.25 in 10.0 mi East 17.3 mph - N/A   Partly Cloudy
9:55 AM 9.5 °F -7.8 °F 2.7 °F 74% 30.24 in 10.0 mi East 16.1 mph - N/A   Partly Cloudy
10:55 AM 10.2 °F -5.7 °F 2.8 °F 72% 30.25 in 10.0 mi East 13.8 mph - N/A   Mostly Cloudy
11:55 AM 10.9 °F -7.0 °F 3.2 °F 71% 30.23 in 10.0 mi East 18.4 mph - N/A   Overcast
12:55 PM 11.8 °F -4.8 °F 4.1 °F 71% 30.21 in 10.0 mi East 16.1 mph - N/A   Overcast
1:44 PM 12.2 °F -4.8 °F 3.2 °F 67% 30.19 in 10.0 mi East 17.3 mph - N/A   Overcast
1:55 PM 12.2 °F -4.3 °F 4.5 °F 71% 30.19 in 10.0 mi East 16.1 mph - N/A   Overcast
2:55 PM 12.7 °F -3.6 °F 4.8 °F 71% 30.18 in 10.0 mi East 16.1 mph - N/A   Overcast
3:16 PM 12.2 °F -4.3 °F 5.0 °F 73% 30.17 in 10.0 mi East 16.1 mph - N/A   Scattered Clouds
3:20 PM 12.2 °F -3.7 °F 5.0 °F 73% 30.17 in 10.0 mi East 15.0 mph - N/A   Mostly Cloudy
3:55 PM 12.7 °F -3.6 °F 5.2 °F 72% 30.16 in 10.0 mi East 16.1 mph - N/A   Overcast
4:55 PM 12.6 °F -3.3 °F 6.1 °F 75% 30.18 in 10.0 mi East 15.0 mph - N/A   Overcast
5:30 PM 12.2 °F -1.8 °F 6.8 °F 79% 30.19 in 10.0 mi ENE 11.5 mph - N/A   Overcast
5:45 PM 12.2 °F -2.5 °F 6.8 °F 79% 30.20 in 10.0 mi East 12.7 mph - N/A   Overcast
5:55 PM 12.6 °F -2.0 °F 6.8 °F 78% 30.19 in 10.0 mi East 12.7 mph - N/A   Overcast
6:07 PM 12.2 °F -3.7 °F 6.8 °F 79% 30.20 in 10.0 mi ESE 15.0 mph - N/A   Overcast
6:51 PM 12.2 °F -4.3 °F 6.8 °F 79% 30.17 in 10.0 mi ESE 16.1 mph - N/A   Overcast
6:55 PM 12.9 °F -3.9 °F 7.5 °F 79% 30.18 in 10.0 mi ESE 17.3 mph - N/A   Overcast
7:07 PM 12.2 °F -3.7 °F 6.8 °F 79% 30.19 in 10.0 mi ESE 15.0 mph - N/A   Overcast
7:55 PM 13.3 °F -1.1 °F 8.6 °F 82% 30.20 in 10.0 mi East 12.7 mph - N/A   Overcast
8:55 PM 14.0 °F 0.5 °F 9.0 °F 80% 30.21 in 10.0 mi East 11.5 mph - N/A   Overcast
9:55 PM 14.2 °F 0.0 °F 9.7 °F 82% 30.19 in 10.0 mi East 12.7 mph - N/A   Overcast
10:31 PM 14.0 °F 0.5 °F 10.4 °F 86% 30.19 in 10.0 mi ESE 11.5 mph - N/A   Overcast
10:55 PM 14.7 °F 0.1 °F 10.2 °F 82% 30.18 in 10.0 mi ESE 13.8 mph - N/A   Overcast
11:55 PM 15.1 °F 2.5 °F 10.8 °F 83% 30.19 in 10.0 mi ESE 10.4 mph - N/A   Overcast